Location: Aiyekoto
(8.4333°N, 4.3667°E)
Time: 23:06:19
(UTC+00:00)

ISO - Pass Details

Date: 07 June 2020
Orbit: 613 x 69998 km, 0.1° (Epoch: 09 July)

Event Time Altitude Azimuth Distance (km) Brightness Sun altitude
Exits shadow 04:27:40 19° 229° (SW) 1,648 3.6 -13.4°
Maximum altitude 04:29:36 27° 183° (S) 1,169 3.2 -13.0°
Drops below altitude 10° 04:32:48 10° 119° (ESE) 2,104 5.3 -12.3°
Sets 04:35:48 0° 105° (ESE) 3,614 6.8 -11.6°
